Year,Month,Day,Hour,Minute,Value (Times are PST for temperature in C)
2011,05,17,00,00,6.30
2011,05,17,00,01,6.30
2011,05,17,00,02,6.30
2011,05,17,00,03,6.30
2011,05,17,00,04,6.30
2011,05,17,00,05,6.30
2011,05,17,00,06,6.20
2011,05,17,00,07,6.20
2011,05,17,00,08,6.20
2011,05,17,00,09,6.20
2011,05,17,00,10,6.20
2011,05,17,00,11,6.10
2011,05,17,00,12,6.10
2011,05,17,00,13,6.10
2011,05,17,00,14,6.10
2011,05,17,00,15,6.10
2011,05,17,00,16,6.10
2011,05,17,00,17,6.10
2011,05,17,00,18,6.00
2011,05,17,00,19,6.00
2011,05,17,00,20,6.00
2011,05,17,00,21,6.00
2011,05,17,00,22,6.00
2011,05,17,00,23,6.00
2011,05,17,00,24,5.90
2011,05,17,00,25,5.90
2011,05,17,00,26,5.90
2011,05,17,00,27,5.90
2011,05,17,00,28,5.90
2011,05,17,00,29,5.90
2011,05,17,00,30,5.90
2011,05,17,00,31,5.90
2011,05,17,00,32,5.80
2011,05,17,00,33,5.80
2011,05,17,00,34,5.80
2011,05,17,00,35,5.80
2011,05,17,00,36,5.80
2011,05,17,00,37,5.80
2011,05,17,00,38,5.80
2011,05,17,00,39,5.70
2011,05,17,00,40,5.70
2011,05,17,00,41,5.70
2011,05,17,00,42,5.70
2011,05,17,00,43,5.70
2011,05,17,00,44,5.70
2011,05,17,00,45,5.70
2011,05,17,00,46,5.70
2011,05,17,00,47,5.60
2011,05,17,00,48,5.60
2011,05,17,00,49,5.60
2011,05,17,00,50,5.60
2011,05,17,00,51,5.60
2011,05,17,00,52,5.60
2011,05,17,00,53,5.60
2011,05,17,00,54,5.60
2011,05,17,00,55,5.60
2011,05,17,00,56,5.60
2011,05,17,00,57,5.60
2011,05,17,00,58,5.50
2011,05,17,00,59,5.50
2011,05,17,01,00,5.50
2011,05,17,01,01,5.50
2011,05,17,01,02,5.50
2011,05,17,01,03,5.50
2011,05,17,01,04,5.50
2011,05,17,01,05,5.50
2011,05,17,01,06,5.50
2011,05,17,01,07,5.50
2011,05,17,01,08,5.50
2011,05,17,01,09,5.50
2011,05,17,01,10,5.50
2011,05,17,01,11,5.50
2011,05,17,01,12,5.50
2011,05,17,01,13,5.50
2011,05,17,01,14,5.50
2011,05,17,01,15,5.50
2011,05,17,01,16,5.50
2011,05,17,01,17,5.50
2011,05,17,01,18,5.50
2011,05,17,01,19,5.50
2011,05,17,01,20,5.40
2011,05,17,01,21,5.40
2011,05,17,01,22,5.40
2011,05,17,01,23,5.40
2011,05,17,01,24,5.40
2011,05,17,01,25,5.40
2011,05,17,01,26,5.40
2011,05,17,01,27,5.40
2011,05,17,01,28,5.40
2011,05,17,01,29,5.30
2011,05,17,01,30,5.30
2011,05,17,01,31,5.30
2011,05,17,01,32,5.30
2011,05,17,01,33,5.30
2011,05,17,01,34,5.30
2011,05,17,01,35,5.30
2011,05,17,01,36,5.20
2011,05,17,01,37,5.20
2011,05,17,01,38,5.20
2011,05,17,01,39,5.20
2011,05,17,01,40,5.20
2011,05,17,01,41,5.20
2011,05,17,01,42,5.20
2011,05,17,01,43,5.20
2011,05,17,01,44,5.20
2011,05,17,01,45,5.20
2011,05,17,01,46,5.20
2011,05,17,01,47,5.20
2011,05,17,01,48,5.20
2011,05,17,01,49,5.20
2011,05,17,01,50,5.20
2011,05,17,01,51,5.10
2011,05,17,01,52,5.10
2011,05,17,01,53,5.10
2011,05,17,01,54,5.10
2011,05,17,01,55,5.00
2011,05,17,01,56,5.00
2011,05,17,01,57,5.00
2011,05,17,01,58,5.00
2011,05,17,01,59,4.90
2011,05,17,02,00,4.90
2011,05,17,02,01,4.90
2011,05,17,02,02,4.90
2011,05,17,02,03,4.90
2011,05,17,02,04,4.90
2011,05,17,02,05,4.80
2011,05,17,02,06,4.80
2011,05,17,02,07,4.80
2011,05,17,02,08,4.80
2011,05,17,02,09,4.80
2011,05,17,02,10,4.80
2011,05,17,02,11,4.70
2011,05,17,02,12,4.70
2011,05,17,02,13,4.70
2011,05,17,02,14,4.70
2011,05,17,02,15,4.70
2011,05,17,02,16,4.70
2011,05,17,02,17,4.70
2011,05,17,02,18,4.70
2011,05,17,02,19,4.70
2011,05,17,02,20,4.70
2011,05,17,02,21,4.70
2011,05,17,02,22,4.70
2011,05,17,02,23,4.70
2011,05,17,02,24,4.70
2011,05,17,02,25,4.60
2011,05,17,02,26,4.60
2011,05,17,02,27,4.60
2011,05,17,02,28,4.60
2011,05,17,02,29,4.60
2011,05,17,02,30,4.60
2011,05,17,02,31,4.60
2011,05,17,02,32,4.60
2011,05,17,02,33,4.50
2011,05,17,02,34,4.50
2011,05,17,02,35,4.50
2011,05,17,02,36,4.50
2011,05,17,02,37,4.40
2011,05,17,02,38,4.40
2011,05,17,02,39,4.40
2011,05,17,02,40,4.40
2011,05,17,02,41,4.40
2011,05,17,02,42,4.40
2011,05,17,02,43,4.40
2011,05,17,02,44,4.40
2011,05,17,02,45,4.40
2011,05,17,02,46,4.40
2011,05,17,02,47,4.40
2011,05,17,02,48,4.40
2011,05,17,02,49,4.40
2011,05,17,02,50,4.30
2011,05,17,02,51,4.30
2011,05,17,02,52,4.30
2011,05,17,02,53,4.30
2011,05,17,02,54,4.30
2011,05,17,02,55,4.30
2011,05,17,02,56,4.30
2011,05,17,02,57,4.30
2011,05,17,02,58,4.30
2011,05,17,02,59,4.30
2011,05,17,03,00,4.30
2011,05,17,03,01,4.20
2011,05,17,03,02,4.20
2011,05,17,03,06,4.20
2011,05,17,03,07,4.20
2011,05,17,03,08,4.20
2011,05,17,03,09,4.10
2011,05,17,03,10,4.10
2011,05,17,03,11,4.20
2011,05,17,03,12,4.20
2011,05,17,03,13,4.20
2011,05,17,03,14,4.20
2011,05,17,03,15,4.20
2011,05,17,03,16,4.20
2011,05,17,03,17,4.20
2011,05,17,03,18,4.20
2011,05,17,03,19,4.20
2011,05,17,03,20,4.20
2011,05,17,03,21,4.20
2011,05,17,03,22,4.20
2011,05,17,03,23,4.20
2011,05,17,03,24,4.20
2011,05,17,03,25,4.20
2011,05,17,03,26,4.10
2011,05,17,03,27,4.10
2011,05,17,03,28,4.10
2011,05,17,03,29,4.10
2011,05,17,03,30,4.10
2011,05,17,03,31,4.10
2011,05,17,03,32,4.10
2011,05,17,03,33,4.10
2011,05,17,03,34,4.10
2011,05,17,03,35,4.00
2011,05,17,03,36,4.00
2011,05,17,03,37,4.10
2011,05,17,03,38,4.10
2011,05,17,03,39,4.10
2011,05,17,03,40,4.10
2011,05,17,03,41,4.10
2011,05,17,03,42,4.10
2011,05,17,03,43,4.10
2011,05,17,03,44,4.10
2011,05,17,03,45,4.10
2011,05,17,03,46,4.10
2011,05,17,03,47,4.10
2011,05,17,03,48,4.10
2011,05,17,03,49,4.10
2011,05,17,03,50,4.10
2011,05,17,03,51,4.20
2011,05,17,03,52,4.20
2011,05,17,03,53,4.20
2011,05,17,03,54,4.20
2011,05,17,03,55,4.30
2011,05,17,03,56,4.30
2011,05,17,03,57,4.30
2011,05,17,03,58,4.30
2011,05,17,03,59,4.30
2011,05,17,04,00,4.40
2011,05,17,04,01,4.40
2011,05,17,04,02,4.40
2011,05,17,04,03,4.40
2011,05,17,04,04,4.50
2011,05,17,04,05,4.50
2011,05,17,04,06,4.50
2011,05,17,04,07,4.50
2011,05,17,04,08,4.50
2011,05,17,04,09,4.50
2011,05,17,04,10,4.60
2011,05,17,04,11,4.60
2011,05,17,04,12,4.60
2011,05,17,04,13,4.60
2011,05,17,04,14,4.60
2011,05,17,04,15,4.50
2011,05,17,04,16,4.50
2011,05,17,04,17,4.50
2011,05,17,04,18,4.50
2011,05,17,04,19,4.50
2011,05,17,04,20,4.40
2011,05,17,04,21,4.40
2011,05,17,04,22,4.40
2011,05,17,04,23,4.40
2011,05,17,04,24,4.40
2011,05,17,04,25,4.40
2011,05,17,04,26,4.40
2011,05,17,04,27,4.40
2011,05,17,04,28,4.40
2011,05,17,04,29,4.40
2011,05,17,04,30,4.40
2011,05,17,04,31,4.40
2011,05,17,04,32,4.40
2011,05,17,04,33,4.40
2011,05,17,04,34,4.30
2011,05,17,04,35,4.40
2011,05,17,04,36,4.40
2011,05,17,04,37,4.40
2011,05,17,04,38,4.40
2011,05,17,04,39,4.40
2011,05,17,04,40,4.30
2011,05,17,04,41,4.30
2011,05,17,04,42,4.30
2011,05,17,04,43,4.30
2011,05,17,04,44,4.30
2011,05,17,04,45,4.30
2011,05,17,04,46,4.30
2011,05,17,04,47,4.30
2011,05,17,04,48,4.30
2011,05,17,04,49,4.30
2011,05,17,04,50,4.30
2011,05,17,04,51,4.30
2011,05,17,04,52,4.30
2011,05,17,04,53,4.30
2011,05,17,04,54,4.20
2011,05,17,04,55,4.20
2011,05,17,04,56,4.20
2011,05,17,04,57,4.20
2011,05,17,04,58,4.20
2011,05,17,04,59,4.20
2011,05,17,05,00,4.20
2011,05,17,05,01,4.20
2011,05,17,05,02,4.20
2011,05,17,05,03,4.20
2011,05,17,05,04,4.20
2011,05,17,05,05,4.20
2011,05,17,05,06,4.20
2011,05,17,05,07,4.30
2011,05,17,05,08,4.30
2011,05,17,05,09,4.30
2011,05,17,05,10,4.30
2011,05,17,05,11,4.30
2011,05,17,05,12,4.30
2011,05,17,05,13,4.30
2011,05,17,05,14,4.30
2011,05,17,05,15,4.30
2011,05,17,05,16,4.30
2011,05,17,05,17,4.30
2011,05,17,05,18,4.30
2011,05,17,05,19,4.30
2011,05,17,05,20,4.30
2011,05,17,05,21,4.30
2011,05,17,05,22,4.30
2011,05,17,05,23,4.30
2011,05,17,05,24,4.30
2011,05,17,05,25,4.30
2011,05,17,05,26,4.30
2011,05,17,05,27,4.30
2011,05,17,05,28,4.30
2011,05,17,05,29,4.30
2011,05,17,05,30,4.30
2011,05,17,05,31,4.30
2011,05,17,05,32,4.30
2011,05,17,05,33,4.30
2011,05,17,05,34,4.30
2011,05,17,05,35,4.30
2011,05,17,05,36,4.30
2011,05,17,05,37,4.40
2011,05,17,05,38,4.40
2011,05,17,05,39,4.40
2011,05,17,05,40,4.40
2011,05,17,05,41,4.40
2011,05,17,05,42,4.40
2011,05,17,05,43,4.40
2011,05,17,05,44,4.40
2011,05,17,05,45,4.40
2011,05,17,05,46,4.40
2011,05,17,05,47,4.40
2011,05,17,05,48,4.40
2011,05,17,05,49,4.40
2011,05,17,05,50,4.40
2011,05,17,05,51,4.40
2011,05,17,05,52,4.40
2011,05,17,05,53,4.40
2011,05,17,05,54,4.40
2011,05,17,05,55,4.40
2011,05,17,05,56,4.40
2011,05,17,05,57,4.40
2011,05,17,05,58,4.40
2011,05,17,05,59,4.40
2011,05,17,06,00,4.40
2011,05,17,06,01,4.40
2011,05,17,06,02,4.40
2011,05,17,06,03,4.40
2011,05,17,06,04,4.40
2011,05,17,06,05,4.40
2011,05,17,06,06,4.40
2011,05,17,06,07,4.40
2011,05,17,06,08,4.40
2011,05,17,06,09,4.40
2011,05,17,06,10,4.40
2011,05,17,06,11,4.40
2011,05,17,06,12,4.40
2011,05,17,06,13,4.40
2011,05,17,06,14,4.40
2011,05,17,06,15,4.40
2011,05,17,06,16,4.40
2011,05,17,06,17,4.40
2011,05,17,06,18,4.50
2011,05,17,06,19,4.50
2011,05,17,06,20,4.50
2011,05,17,06,21,4.40
2011,05,17,06,22,4.50
2011,05,17,06,23,4.50
2011,05,17,06,24,4.40
2011,05,17,06,25,4.40
2011,05,17,06,26,4.40
2011,05,17,06,27,4.40
2011,05,17,06,28,4.40
2011,05,17,06,29,4.40
2011,05,17,06,30,4.40
2011,05,17,06,31,4.40
2011,05,17,06,32,4.40
2011,05,17,06,33,4.40
2011,05,17,06,34,4.40
2011,05,17,06,35,4.30
2011,05,17,06,36,4.40
2011,05,17,06,37,4.30
2011,05,17,06,38,4.30
2011,05,17,06,39,4.40
2011,05,17,06,40,4.40
2011,05,17,06,41,4.40
2011,05,17,06,42,4.40
2011,05,17,06,43,4.40
2011,05,17,06,44,4.40
2011,05,17,06,45,4.40
2011,05,17,06,46,4.40
2011,05,17,06,47,4.40
2011,05,17,06,48,4.40
2011,05,17,06,49,4.50
2011,05,17,06,50,4.50
2011,05,17,06,51,4.50
2011,05,17,06,52,4.40
2011,05,17,06,53,4.40
2011,05,17,06,54,4.40
2011,05,17,06,55,4.40
2011,05,17,06,56,4.40
2011,05,17,06,57,4.40
2011,05,17,06,58,4.30
2011,05,17,06,59,4.30
2011,05,17,07,00,4.30
2011,05,17,07,01,4.30
2011,05,17,07,02,4.30
2011,05,17,07,03,4.30
2011,05,17,07,04,4.40
2011,05,17,07,05,4.40
2011,05,17,07,06,4.40
2011,05,17,07,07,4.40
2011,05,17,07,08,4.40
2011,05,17,07,09,4.40
2011,05,17,07,10,4.30
2011,05,17,07,11,4.30
2011,05,17,07,12,4.30
2011,05,17,07,13,4.30
2011,05,17,07,14,4.30
2011,05,17,07,15,4.30
2011,05,17,07,16,4.40
2011,05,17,07,17,4.30
2011,05,17,07,18,4.40
2011,05,17,07,19,4.30
2011,05,17,07,20,4.40
2011,05,17,07,21,4.30
2011,05,17,07,22,4.30
2011,05,17,07,23,4.30
2011,05,17,07,24,4.30
2011,05,17,07,25,4.30
2011,05,17,07,26,4.30
2011,05,17,07,27,4.30
2011,05,17,07,28,4.30
2011,05,17,07,29,4.30
2011,05,17,07,30,4.30
2011,05,17,07,31,4.30
2011,05,17,07,32,4.30
2011,05,17,07,33,4.30
2011,05,17,07,34,4.30
2011,05,17,07,35,4.30
2011,05,17,07,36,4.30
2011,05,17,07,37,4.30
2011,05,17,07,38,4.30
2011,05,17,07,39,4.30
2011,05,17,07,40,4.30
2011,05,17,07,41,4.30
2011,05,17,07,42,4.30
2011,05,17,07,43,4.30
2011,05,17,07,44,4.30
2011,05,17,07,45,4.20
2011,05,17,07,46,4.20
2011,05,17,07,47,4.20
2011,05,17,07,48,4.20
2011,05,17,07,49,4.30
2011,05,17,07,50,4.30
2011,05,17,07,51,4.30
2011,05,17,07,52,4.30
2011,05,17,07,53,4.30
2011,05,17,07,54,4.30
2011,05,17,07,55,4.20
2011,05,17,07,56,4.20
2011,05,17,07,57,4.20
2011,05,17,07,58,4.20
2011,05,17,07,59,4.30
2011,05,17,08,00,4.30
2011,05,17,08,01,4.30
2011,05,17,08,02,4.30
2011,05,17,08,03,4.30
2011,05,17,08,04,4.30
2011,05,17,08,05,4.40
2011,05,17,08,06,4.40
2011,05,17,08,07,4.40
2011,05,17,08,08,4.40
2011,05,17,08,09,4.40
2011,05,17,08,10,4.40
2011,05,17,08,11,4.40
2011,05,17,08,12,4.40
2011,05,17,08,13,4.40
2011,05,17,08,14,4.40
2011,05,17,08,15,4.40
2011,05,17,08,16,4.40
2011,05,17,08,17,4.50
2011,05,17,08,18,4.50
2011,05,17,08,19,4.50
2011,05,17,08,20,4.50
2011,05,17,08,21,4.40
2011,05,17,08,22,4.40
2011,05,17,08,23,4.50
2011,05,17,08,24,4.50
2011,05,17,08,25,4.50
2011,05,17,08,26,4.50
2011,05,17,08,27,4.50
2011,05,17,08,28,4.50
2011,05,17,08,29,4.40
2011,05,17,08,30,4.50
2011,05,17,08,31,4.50
2011,05,17,08,32,4.50
2011,05,17,08,33,4.50
2011,05,17,08,34,4.50
2011,05,17,08,35,4.60
2011,05,17,08,36,4.60
2011,05,17,08,37,4.70
2011,05,17,08,38,4.70
2011,05,17,08,39,4.70
2011,05,17,08,40,4.70
2011,05,17,08,41,4.70
2011,05,17,08,42,4.70
2011,05,17,08,43,4.70
2011,05,17,08,44,4.70
2011,05,17,08,45,4.80
2011,05,17,08,46,4.80
2011,05,17,08,47,4.80
2011,05,17,08,48,4.80
2011,05,17,08,49,4.80
2011,05,17,08,50,4.80
2011,05,17,08,51,4.80
2011,05,17,08,52,4.80
2011,05,17,08,53,4.80
2011,05,17,08,54,4.80
2011,05,17,08,55,4.80
2011,05,17,08,56,4.80
2011,05,17,08,57,4.80
2011,05,17,08,58,4.90
2011,05,17,08,59,4.90
2011,05,17,09,00,4.90
2011,05,17,09,01,4.90
2011,05,17,09,02,4.80
2011,05,17,09,03,4.80
2011,05,17,09,04,4.80
2011,05,17,09,05,4.80
2011,05,17,09,06,4.80
2011,05,17,09,07,4.80
2011,05,17,09,08,4.80
2011,05,17,09,09,4.70
2011,05,17,09,10,4.80
2011,05,17,09,11,4.80
2011,05,17,09,12,4.80
2011,05,17,09,13,4.80
2011,05,17,09,14,4.80
2011,05,17,09,15,4.80
2011,05,17,09,16,4.80
2011,05,17,09,17,4.80
2011,05,17,09,18,4.80
2011,05,17,09,19,4.80
2011,05,17,09,20,4.80
2011,05,17,09,21,4.80
2011,05,17,09,22,4.80
2011,05,17,09,23,4.90
2011,05,17,09,24,4.90
2011,05,17,09,25,4.90
2011,05,17,09,26,4.90
2011,05,17,09,27,5.00
2011,05,17,09,28,5.00
2011,05,17,09,29,5.10
2011,05,17,09,30,5.10
2011,05,17,09,31,5.10
2011,05,17,09,32,5.10
2011,05,17,09,33,5.10
2011,05,17,09,34,5.10
2011,05,17,09,35,5.10
2011,05,17,09,36,5.20
2011,05,17,09,37,5.20
2011,05,17,09,38,5.30
2011,05,17,09,39,5.30
2011,05,17,09,40,5.40
2011,05,17,09,41,5.50
2011,05,17,09,42,5.60
2011,05,17,09,43,5.60
2011,05,17,09,44,5.70
2011,05,17,09,45,5.70
2011,05,17,09,46,5.90
2011,05,17,09,47,6.00
2011,05,17,09,48,6.10
2011,05,17,09,49,6.20
2011,05,17,09,50,6.30
2011,05,17,09,51,6.30
2011,05,17,09,52,6.40
2011,05,17,09,53,6.40
2011,05,17,09,54,6.40
2011,05,17,09,55,6.40
2011,05,17,09,56,6.40
2011,05,17,09,57,6.50
2011,05,17,09,58,6.50
2011,05,17,09,59,6.60
2011,05,17,10,00,6.70
2011,05,17,10,01,6.70
2011,05,17,10,02,6.70
2011,05,17,10,03,6.70
2011,05,17,10,04,6.70
2011,05,17,10,05,6.70
2011,05,17,10,06,6.70
2011,05,17,10,07,6.70
2011,05,17,10,08,6.80
2011,05,17,10,09,6.80
2011,05,17,10,10,6.90
2011,05,17,10,11,7.00
2011,05,17,10,12,7.00
2011,05,17,10,13,7.00
2011,05,17,10,14,7.00
2011,05,17,10,15,7.00
2011,05,17,10,16,7.00
2011,05,17,10,17,7.10
2011,05,17,10,18,7.10
2011,05,17,10,19,7.20
2011,05,17,10,20,7.20
2011,05,17,10,21,7.20
2011,05,17,10,22,7.30
2011,05,17,10,23,7.40
2011,05,17,10,24,7.40
2011,05,17,10,25,7.40
2011,05,17,10,26,7.50
2011,05,17,10,27,7.60
2011,05,17,10,28,7.70
2011,05,17,10,29,7.80
2011,05,17,10,30,7.80
2011,05,17,10,31,7.80
2011,05,17,10,32,7.90
2011,05,17,10,33,7.90
2011,05,17,10,34,8.00
2011,05,17,10,35,8.00
2011,05,17,10,36,8.10
2011,05,17,10,37,8.10
2011,05,17,10,38,8.20
2011,05,17,10,39,8.20
2011,05,17,10,40,8.30
2011,05,17,10,41,8.30
2011,05,17,10,42,8.40
2011,05,17,10,43,8.50
2011,05,17,10,44,8.60
2011,05,17,10,45,8.60
2011,05,17,10,46,8.70
2011,05,17,10,47,8.70
2011,05,17,10,48,8.80
2011,05,17,10,49,8.80
2011,05,17,10,50,8.90
2011,05,17,10,51,9.00
2011,05,17,10,52,9.00
2011,05,17,10,53,8.90
2011,05,17,10,54,8.90
2011,05,17,10,55,8.90
2011,05,17,10,56,8.80
2011,05,17,10,57,8.80
2011,05,17,10,58,8.80
2011,05,17,10,59,8.80
2011,05,17,11,00,8.80
2011,05,17,11,01,8.90
2011,05,17,11,02,9.00
2011,05,17,11,03,9.10
2011,05,17,11,04,9.20
2011,05,17,11,05,9.30
2011,05,17,11,06,9.40
2011,05,17,11,07,9.50
2011,05,17,11,08,9.60
2011,05,17,11,09,9.70
2011,05,17,11,10,9.80
2011,05,17,11,11,10.00
2011,05,17,11,12,10.10
2011,05,17,11,13,10.20
2011,05,17,11,14,10.30
2011,05,17,11,15,10.40
2011,05,17,11,16,10.60
2011,05,17,11,17,10.60
2011,05,17,11,18,10.50
2011,05,17,11,19,10.40
2011,05,17,11,20,10.40
2011,05,17,11,21,10.30
2011,05,17,11,22,10.40
2011,05,17,11,23,10.50
2011,05,17,11,24,10.60
2011,05,17,11,25,10.70
2011,05,17,11,26,10.80
2011,05,17,11,27,10.80
2011,05,17,11,28,10.80
2011,05,17,11,29,10.90
2011,05,17,11,30,10.90
2011,05,17,11,31,10.90
2011,05,17,11,32,11.00
2011,05,17,11,33,11.10
2011,05,17,11,34,11.30
2011,05,17,11,35,11.30
2011,05,17,11,36,11.40
2011,05,17,11,37,11.40
2011,05,17,11,38,11.40
2011,05,17,11,39,11.40
2011,05,17,11,40,11.40
2011,05,17,11,41,11.40
2011,05,17,11,42,11.40
2011,05,17,11,43,11.50
2011,05,17,11,44,11.60
2011,05,17,11,45,11.70
2011,05,17,11,46,11.90
2011,05,17,11,47,11.90
2011,05,17,11,48,12.00
2011,05,17,11,49,12.10
2011,05,17,11,50,12.20
2011,05,17,11,51,12.20
2011,05,17,11,52,12.10
2011,05,17,11,53,12.00
2011,05,17,11,54,12.00
2011,05,17,11,55,12.00
2011,05,17,11,56,12.10
2011,05,17,11,57,12.10
2011,05,17,11,58,12.20
2011,05,17,11,59,12.30
2011,05,17,12,00,12.40
2011,05,17,12,01,12.40
2011,05,17,12,02,12.50
2011,05,17,12,03,12.60
2011,05,17,12,04,12.60
2011,05,17,12,05,12.70
2011,05,17,12,06,12.70
2011,05,17,12,07,12.70
2011,05,17,12,08,12.60
2011,05,17,12,09,12.60
2011,05,17,12,10,12.50
2011,05,17,12,11,12.60
2011,05,17,12,12,12.60
2011,05,17,12,13,12.70
2011,05,17,12,14,12.90
2011,05,17,12,15,12.90
2011,05,17,12,16,12.80
2011,05,17,12,17,12.80
2011,05,17,12,18,12.80
2011,05,17,12,19,12.80
2011,05,17,12,20,12.90
2011,05,17,12,21,12.90
2011,05,17,12,22,13.00
2011,05,17,12,23,13.10
2011,05,17,12,24,13.10
2011,05,17,12,25,13.20
2011,05,17,12,26,13.20
2011,05,17,12,27,13.20
2011,05,17,12,28,13.30
2011,05,17,12,29,13.50
2011,05,17,12,30,13.60
2011,05,17,12,31,13.80
2011,05,17,12,32,13.90
2011,05,17,12,33,13.90
2011,05,17,12,34,14.00
2011,05,17,12,35,14.00
2011,05,17,12,36,14.10
2011,05,17,12,37,14.10
2011,05,17,12,38,14.10
2011,05,17,12,39,14.10
2011,05,17,12,40,14.10
2011,05,17,12,41,14.10
2011,05,17,12,42,14.10
2011,05,17,12,43,14.20
2011,05,17,12,44,14.20
2011,05,17,12,45,14.30
2011,05,17,12,46,14.40
2011,05,17,12,47,14.60
2011,05,17,12,48,14.70
2011,05,17,12,49,14.70
2011,05,17,12,50,14.70
2011,05,17,12,51,14.70
2011,05,17,12,52,14.70
2011,05,17,12,53,14.60
2011,05,17,12,54,14.60
2011,05,17,12,55,14.60
2011,05,17,12,56,14.70
2011,05,17,12,57,14.70
2011,05,17,12,58,14.70
2011,05,17,12,59,14.70
2011,05,17,13,00,14.80
2011,05,17,13,01,14.80
2011,05,17,13,02,14.80
2011,05,17,13,03,14.80
2011,05,17,13,04,14.70
2011,05,17,13,05,14.70
2011,05,17,13,06,14.80
2011,05,17,13,07,14.80
2011,05,17,13,08,14.90
2011,05,17,13,09,14.90
2011,05,17,13,10,14.80
2011,05,17,13,11,14.80
2011,05,17,13,12,14.80
2011,05,17,13,13,14.90
2011,05,17,13,14,14.90
2011,05,17,13,15,14.90
2011,05,17,13,16,14.90
2011,05,17,13,17,14.90
2011,05,17,13,18,14.90
2011,05,17,13,19,14.80
2011,05,17,13,20,14.80
2011,05,17,13,21,14.80
2011,05,17,13,22,14.80
2011,05,17,13,23,14.90
2011,05,17,13,24,14.90
2011,05,17,13,25,14.90
2011,05,17,13,26,14.90
2011,05,17,13,27,14.90
2011,05,17,13,28,15.00
2011,05,17,13,29,15.00
2011,05,17,13,30,15.10
2011,05,17,13,31,15.20
2011,05,17,13,32,15.40
2011,05,17,13,33,15.40
2011,05,17,13,34,15.50
2011,05,17,13,35,15.50
2011,05,17,13,36,15.50
2011,05,17,13,37,15.50
2011,05,17,13,38,15.40
2011,05,17,13,39,15.40
2011,05,17,13,40,15.50
2011,05,17,13,41,15.50
2011,05,17,13,42,15.50
2011,05,17,13,43,15.40
2011,05,17,13,44,15.40
2011,05,17,13,45,15.40
2011,05,17,13,46,15.50
2011,05,17,13,47,15.60
2011,05,17,13,48,15.60
2011,05,17,13,49,15.70
2011,05,17,13,50,15.70
2011,05,17,13,51,15.80
2011,05,17,13,52,15.80
2011,05,17,13,53,16.00
2011,05,17,13,54,16.10
2011,05,17,13,55,16.20
2011,05,17,13,56,16.30
2011,05,17,13,57,16.40
2011,05,17,13,58,16.50
2011,05,17,13,59,16.60
2011,05,17,14,00,16.60
2011,05,17,14,01,16.60
2011,05,17,14,02,16.60
2011,05,17,14,03,16.50
2011,05,17,14,04,16.40
2011,05,17,14,05,16.40
2011,05,17,14,06,16.30
2011,05,17,14,07,16.30
2011,05,17,14,08,16.20
2011,05,17,14,09,16.10
2011,05,17,14,10,16.00
2011,05,17,14,11,16.00
2011,05,17,14,12,16.00
2011,05,17,14,13,16.10
2011,05,17,14,14,16.10
2011,05,17,14,15,16.10
2011,05,17,14,16,16.20
2011,05,17,14,17,16.30
2011,05,17,14,18,16.30
2011,05,17,14,19,16.30
2011,05,17,14,20,16.30
2011,05,17,14,21,16.40
2011,05,17,14,22,16.40
2011,05,17,14,23,16.40
2011,05,17,14,24,16.40
2011,05,17,14,25,16.50
2011,05,17,14,26,16.60
2011,05,17,14,27,16.70
2011,05,17,14,28,16.60
2011,05,17,14,29,16.60
2011,05,17,14,30,16.60
2011,05,17,14,31,16.60
2011,05,17,14,32,16.60
2011,05,17,14,33,16.50
2011,05,17,14,34,16.40
2011,05,17,14,35,16.30
2011,05,17,14,36,16.30
2011,05,17,14,37,16.40
2011,05,17,14,38,16.40
2011,05,17,14,39,16.40
2011,05,17,14,40,16.40
2011,05,17,14,41,16.40
2011,05,17,14,42,16.40
2011,05,17,14,43,16.50
2011,05,17,14,44,16.60
2011,05,17,14,45,16.60
2011,05,17,14,46,16.70
2011,05,17,14,47,16.70
2011,05,17,14,48,16.70
2011,05,17,14,49,16.70
2011,05,17,14,50,16.80
2011,05,17,14,51,16.90
2011,05,17,14,52,16.90
2011,05,17,14,53,16.90
2011,05,17,14,54,16.90
2011,05,17,14,55,16.90
2011,05,17,14,56,16.90
2011,05,17,14,57,16.90
2011,05,17,14,58,17.00
2011,05,17,14,59,17.10
2011,05,17,15,00,17.10
2011,05,17,15,01,17.20
2011,05,17,15,02,17.20
2011,05,17,15,03,17.20
2011,05,17,15,04,17.20
2011,05,17,15,05,17.20
2011,05,17,15,06,17.20
2011,05,17,15,07,17.20
2011,05,17,15,08,17.10
2011,05,17,15,09,17.10
2011,05,17,15,10,17.10
2011,05,17,15,11,17.10
2011,05,17,15,12,17.10
2011,05,17,15,13,17.10
2011,05,17,15,14,17.10
2011,05,17,15,15,17.10
2011,05,17,15,16,17.20
2011,05,17,15,17,17.20
2011,05,17,15,18,17.20
2011,05,17,15,19,17.20
2011,05,17,15,20,17.30
2011,05,17,15,21,17.30
2011,05,17,15,22,17.50
2011,05,17,15,23,17.60
2011,05,17,15,24,17.50
2011,05,17,15,25,17.40
2011,05,17,15,26,17.30
2011,05,17,15,27,17.10
2011,05,17,15,28,17.00
2011,05,17,15,29,16.90
2011,05,17,15,30,16.90
2011,05,17,15,31,16.90
2011,05,17,15,32,16.90
2011,05,17,15,33,17.00
2011,05,17,15,34,17.00
2011,05,17,15,35,17.00
2011,05,17,15,36,17.10
2011,05,17,15,37,17.10
2011,05,17,15,38,17.10
2011,05,17,15,39,17.10
2011,05,17,15,40,17.10
2011,05,17,15,41,17.10
2011,05,17,15,42,17.10
2011,05,17,15,43,17.20
2011,05,17,15,44,17.30
2011,05,17,15,45,17.40
2011,05,17,15,46,17.40
2011,05,17,15,47,17.30
2011,05,17,15,48,17.30
2011,05,17,15,49,17.30
2011,05,17,15,50,17.20
2011,05,17,15,51,17.30
2011,05,17,15,52,17.30
2011,05,17,15,53,17.40
2011,05,17,15,54,17.40
2011,05,17,15,55,17.40
2011,05,17,15,56,17.40
2011,05,17,15,57,17.40
2011,05,17,15,58,17.40
2011,05,17,15,59,17.40
2011,05,17,16,00,17.40
2011,05,17,16,01,17.50
2011,05,17,16,02,17.60
2011,05,17,16,03,17.70
2011,05,17,16,04,17.60
2011,05,17,16,05,17.50
2011,05,17,16,06,17.50
2011,05,17,16,07,17.40
2011,05,17,16,08,17.30
2011,05,17,16,09,17.30
2011,05,17,16,10,17.30
2011,05,17,16,11,17.40
2011,05,17,16,12,17.50
2011,05,17,16,13,17.50
2011,05,17,16,14,17.60
2011,05,17,16,15,17.60
2011,05,17,16,16,17.50
2011,05,17,16,17,17.50
2011,05,17,16,18,17.40
2011,05,17,16,19,17.40
2011,05,17,16,20,17.30
2011,05,17,16,21,17.30
2011,05,17,16,22,17.20
2011,05,17,16,23,17.10
2011,05,17,16,24,17.10
2011,05,17,16,25,17.20
2011,05,17,16,26,17.20
2011,05,17,16,27,17.20
2011,05,17,16,28,17.20
2011,05,17,16,29,17.20
2011,05,17,16,30,17.20
2011,05,17,16,31,17.10
2011,05,17,16,32,17.20
2011,05,17,16,33,17.20
2011,05,17,16,34,17.20
2011,05,17,16,35,17.10
2011,05,17,16,36,17.10
2011,05,17,16,37,17.00
2011,05,17,16,38,17.00
2011,05,17,16,39,17.10
2011,05,17,16,40,17.20
2011,05,17,16,41,17.30
2011,05,17,16,42,17.30
2011,05,17,16,43,17.30
2011,05,17,16,44,17.20
2011,05,17,16,45,17.20
2011,05,17,16,46,17.20
2011,05,17,16,47,17.20
2011,05,17,16,48,17.20
2011,05,17,16,49,17.20
2011,05,17,16,50,17.20
2011,05,17,16,51,17.20
2011,05,17,16,52,17.20
2011,05,17,16,53,17.20
2011,05,17,16,54,17.20
2011,05,17,16,55,17.20
2011,05,17,16,56,17.10
2011,05,17,16,57,17.10
2011,05,17,16,58,17.10
2011,05,17,16,59,17.10
2011,05,17,17,00,17.10
2011,05,17,17,01,17.10
2011,05,17,17,02,17.10
2011,05,17,17,03,17.20
2011,05,17,17,04,17.20
2011,05,17,17,05,17.20
2011,05,17,17,06,17.20
2011,05,17,17,07,17.20
2011,05,17,17,08,17.20
2011,05,17,17,09,17.30
2011,05,17,17,10,17.30
2011,05,17,17,11,17.40
2011,05,17,17,12,17.50
2011,05,17,17,13,17.50
2011,05,17,17,14,17.40
2011,05,17,17,15,17.40
2011,05,17,17,16,17.30
2011,05,17,17,17,17.40
2011,05,17,17,18,17.40
2011,05,17,17,19,17.50
2011,05,17,17,20,17.50
2011,05,17,17,21,17.60
2011,05,17,17,22,17.50
2011,05,17,17,23,17.40
2011,05,17,17,24,17.30
2011,05,17,17,25,17.30
2011,05,17,17,26,17.20
2011,05,17,17,27,17.10
2011,05,17,17,28,17.10
2011,05,17,17,29,17.00
2011,05,17,17,30,17.00
2011,05,17,17,31,17.10
2011,05,17,17,32,17.10
2011,05,17,17,33,17.20
2011,05,17,17,34,17.10
2011,05,17,17,35,17.10
2011,05,17,17,36,17.00
2011,05,17,17,37,17.00
2011,05,17,17,38,16.90
2011,05,17,17,39,16.90
2011,05,17,17,40,16.90
2011,05,17,17,41,16.80
2011,05,17,17,42,16.80
2011,05,17,17,43,16.80
2011,05,17,17,44,16.90
2011,05,17,17,45,16.90
2011,05,17,17,46,16.90
2011,05,17,17,47,16.80
2011,05,17,17,48,16.80
2011,05,17,17,49,16.70
2011,05,17,17,50,16.60
2011,05,17,17,51,16.60